User: anonymous   Login
Location: Indian Springs
(36.5700°N, 115.6700°W)
Time: 04:11:56
(UTC-08:00)
Language:

Cosmos 2278 Rocket - Orbit

View from above orbital plane
View from above orbital plane
View from above satellite
View from above satellite

Ground track
Ground track

The orbit data is extracted from the following two-line orbital elements,

1 23088U 94023B   14354.23906322  .00000314  00000-0  18831-3 0   974
2 23088 071.0006 031.8491 0002703 001.4778 063.1685 14.14596696 66868
Epoch (UTC): 20 December 2014 05:44:15
Eccentricity: 0.0002703
inclination: 71.0006°
perigee height: 842 km
apogee height: 845 km
right ascension of ascending node: 31.8491°
argument of perigee: 1.4778°
revolutions per day: 14.14596696
mean anomaly at epoch: 63.1685°
orbit number at epoch: 6686

The dashed part of the orbit path shows where the satellite is in the earth's shadow,  

DLR